{"data":{"norad_id":68881,"epoch":"2026-05-24T20:15:23.121504Z","epoch_age_seconds":99107,"freshness":"FRESH","line1":"1 68881U 26095T   26144.84401761  .00024740  00000+0  71884-3 0  9998","line2":"2 68881  51.8719 355.5599 0007838 214.9079 145.1394 15.35302445  4130","mean_motion":15.35302445,"eccentricity":0.0007838,"inclination_deg":51.8719,"raan_deg":355.5599,"arg_perigee_deg":214.9079,"mean_anomaly_deg":145.1394,"bstar":0.00071884,"rev_number":413,"period_min":93.792594722273,"perigee_km":454.66254816429,"apogee_km":465.38204667893,"semimajor_km":6838.1592974216,"source":"CELESTRAK","updated_at":"2026-05-25T13:38:08.649091Z"}}